SCP
0 0 0 0 0 0 0 0 0 0 1 2 2 1 1 0 0 0 0 0 0 0 0 0 0 0 0 0 0 0 0 0 0 0 0 0 0 0 0 0 0 0 0
0 0 0 0 0 0 0 0 0 0 1 1 1 1 0 0 0 0 0 0 0 0 0 0 0 0 0 0 0 0 0 0 0 0 0 0 0 0 0 0 0 0 0
0 0 0 0 0 0 0 0 0 0 0 0 0 0 0 0 0 0 0 0 0 0 0 0 0 0 0 0 0 0 0 0 0 0 0 0 0 0 0 0 0 0 0
0 0 0 0 0 0 0 0 0 0 0 0 0 0 0 0 0 0 0 0 0 0 0 0 0 0 0 0 0 0 0 0 0 0 0 0 0 0 0 0 0 0 0
0 0 0 0 0 0 0 0 0 0 0 0 0 0 0 0 0 0 0 0 0 0 0 0 0 0 0 0 0 0 0 0 0 0 0 0 0 0 0 0 0 0 0
0 0 0 0 0 0 0 0 0 0 0 0 0 0 0 0 0 0 0 0 0 0 0 0 0 0 0 0 0 0 0 0 0 0 0 0 0 0 0 0 0 0 0
0 0 0 0 0 0 0 0 0 0 0 0 0 0 0 0 0 0 0 0 0 0 0 0 0 0 0 0 0 0 0 0 0 0 0 0 0 0 0 0 0 0 0
0 0 0 0 0 0 0 0 0 0 0 0 0 0 0 0 0 0 0 0 0 0 0 0 0 1 1 0 0 0 0 0 0 0 0 0 0 0 0 0 0 0 0
0 0 0 0 0 0 0 0 0 0 0 0 0 0 0 0 0 0 0 0 0 0 0 0 0 1 1 0 0 0 0 0 0 0 0 0 0 0 0 0 0 0 0
0 0 0 0 0 0 0 0 0 0 0 0 0 0 0 0 0 0 0 0 0 0 0 0 0 0 0 0 0 0 0 0 0 0 0 0 0 0 0 0 0 0 0
0 0 0 0 0 0 0 0 0 0 0 0 0 0 0 0 0 0 0 0 0 0 0 0 0 0 0 0 0 0 0 0 0 0 0 0 0 0 0 0 0 0 0
0 0 0 0 0 0 0 0 0 0 0 0 0 0 0 0 0 0 0 0 0 0 0 0 1 0 0 0 0 0 0 0 0 0 0 0 0 0 0 0 0 0 0
0 0 0 0 0 0 0 0 0 0 0 0 0 0 0 0 0 0 0 0 0 0 0 0 0 0 0 0 0 0 0 0 0 0 0 0 0 0 0 0 0 0 0
0 0 0 0 0 0 0 0 0 0 0 0 0 0 0 0 0 0 0 0 0 0 0 0 0 0 0 0 0 0 0 0 0 0 0 0 0 0 0 0 0 0 0
0 0 0 0 0 0 0 0 0 0 0 0 0 0 0 0 0 0 0 0 0 0 0 0 0 0 0 0 0 0 0 0 0 0 0 0 0 0 0 0 0 0 0
0 0 0 0 0 0 0 0 0 0 0 0 0 0 0 0 0 0 0 0 0 0 0 0 0 0 0 0 0 0 0 0 0 0 0 0 0 0 0 0 0 0 0
0 0 0 0 0 0 0 0 0 0 0 0 0 0 0 0 0 0 0 0 0 0 0 0 0 0 0 0 0 0 0 0 0 0 0 0 0 0 0 0 0 0 0
0 0 0 0 0 0 0 0 0 0 0 0 0 0 0 0 0 0 0 0 0 0 0 0 0 0 0 0 0 0 0 0 0 0 0 0 0 0 0 0 0 0 0
0 0 0 0 0 0 0 0 0 0 0 0 0 0 0 0 0 0 0 0 0 0 0 0 0 0 0 0 0 0 0 0 0 0 0 0 0 0 0 0 0 0 0
0 0 0 0 0 0 0 0 0 0 0 0 0 0 0 0 0 0 0 0 0 0 0 0 0 0 0 0 0 0 0 0 0 0 0 0 0 0 0 0 0 0 0
0 0 0 0 0 0 0 0 0 0 0 0 0 0 0 0 0 0 0 0 0 0 0 0 0 0 0 0 0 0 0 0 0 0 0 0 0 0 0 0 0 0 0
0 0 0 0 0 0 0 0 0 0 0 0 0 0 0 0 0 0 0 0 0 0 0 0 0 0 0 0 0 0 0 0 0 0 0 0 0 0 0 0 0 0 0
0 0 0 0 0 0 0 0 0 0 0 0 0 0 0 0 0 0 0 0 0 0 0 0 0 0 0 0 0 0 0 0 0 0 0 0 0 0 0 0 0 0 0
0 0 0 0 0 0 0 0 0 0 0 0 0 0 0 0 0 0 0 0 0 0 0 0 0 0 0 0 0 0 0 0 0 0 0 0 0 0 0 0 0 0 0
0 0 0 0 0 0 0 0 0 0 0 0 0 0 0 0 0 0 0 0 0 0 0 0 0 0 0 0 0 0 0 0 0 0 0 0 0 0 0 0 0 0 0
0 0 0 0 0 0 0 0 0 0 0 0 0 0 0 0 0 0 0 0 0 0 0 0 0 0 0 0 0 0 0 0 0 0 0 0 0 0 0 0 0 0 0
Wind_Speed
2 2 2 2 2 3 3 3 3 4 4 4 5 5 6 6 6 7 7 7 8 8 7 8 8 7 5 5 5 5 5 5 5 3 3 3 5 5 4 4 4 5 4
2 3 3 2 2 3 3 3 3 3 4 4 5 5 6 6 6 8 8 8 9 9 9 8 8 6 7 6 5 6 6 6 5 5 3 3 5 5 5 5 4 4 4
2 3 3 3 3 3 3 2 2 3 3 4 5 5 6 5 6 7 7 8 9 9 9 9 9 8 8 7 7 6 5 5 4 4 3 3 3 3 4 4 4 4 4
3 3 3 3 3 3 3 3 3 3 3 4 4 5 5 5 5 6 6 7 7 7 8 8 9 9 9 9 7 7 5 5 5 4 4 4 3 3 4 4 4 4 4
3 3 3 3 3 3 3 3 3 3 4 4 4 4 5 5 5 6 6 6 7 7 7 8 8 9 11 9 7 7 7 5 5 5 4 4 4 4 5 4 4 4 4
3 3 3 3 3 3 3 3 3 3 3 4 4 5 5 4 6 8 7 6 7 7 7 7 7 8 10 12 12 11 10 8 7 6 6 6 6 5 5 4 4 4 4
3 3 3 3 3 3 3 3 3 3 3 4 4 4 5 5 7 8 8 6 7 7 7 7 6 6 8 8 9 10 10 11 10 8 8 8 7 6 6 6 6 6 5
3 3 3 3 3 3 3 3 3 3 3 4 4 4 4 5 6 7 7 6 6 7 7 8 7 7 7 7 6 7 8 8 9 8 8 7 6 6 6 6 6 5 3
4 3 3 3 3 3 3 3 3 3 4 4 4 4 5 5 6 6 6 5 5 6 6 7 7 7 8 8 7 7 7 7 7 8 8 7 7 7 6 4 4 4 4
4 4 3 3 4 4 4 3 3 3 4 4 4 4 4 4 5 6 6 4 4 5 5 6 8 8 9 10 8 7 8 7 5 5 6 6 6 6 8 7 6 5 4
3 3 3 3 4 4 3 3 3 3 3 3 4 4 4 4 5 6 6 4 4 4 4 5 5 9 10 10 9 7 8 6 5 5 4 4 4 4 5 5 5 5 5
2 3 3 3 2 2 3 3 3 3 3 3 3 3 3 3 4 6 7 6 5 4 5 4 5 8 9 9 8 8 8 6 4 4 4 4 4 4 3 3 4 4 4
2 2 2 2 2 2 3 3 3 3 3 3 3 3 3 2 3 6 6 6 6 4 4 6 7 8 7 6 7 8 6 4 4 4 4 4 3 3 2 2 2 2 2
2 2 2 2 2 2 2 3 3 3 3 3 3 3 3 3 3 3 3 3 4 4 3 4 6 6 5 5 5 5 4 4 4 4 3 3 2 2 3 3 3 2 2
1 1 1 2 2 2 2 2 3 4 4 4 4 3 4 4 4 5 4 3 3 3 3 2 2 3 3 3 3 3 3 3 4 3 3 3 3 3 3 3 3 2 3
1 1 1 1 1 1 1 1 2 3 5 6 6 5 4 5 6 6 6 6 6 5 3 3 3 3 4 4 4 3 3 3 4 3 3 4 4 4 3 3 3 3 3
1 1 1 1 1 1 1 2 2 2 4 5 6 6 6 5 5 6 6 5 4 4 3 3 3 4 4 3 3 4 4 4 3 4 4 4 4 4 4 4 4 3 3
1 2 2 1 1 1 1 2 2 2 2 3 3 5 5 5 5 5 5 3 3 3 3 4 4 4 4 4 3 3 3 3 4 4 4 4 4 4 4 4 4 4 4
1 1 1 1 1 1 1 2 2 2 2 2 2 2 3 3 3 3 2 2 3 3 3 3 3 3 3 3 3 3 3 4 4 4 4 4 4 5 5 5 4 6 5
2 2 2 1 1 1 1 1 1 2 2 2 2 2 2 2 2 2 2 2 3 3 3 3 3 3 3 3 3 3 3 4 4 4 4 4 4 5 5 6 5 5 5
1 2 2 2 1 1 1 1 2 2 2 2 2 2 3 2 2 3 2 3 3 3 3 3 3 3 3 3 3 4 5 4 4 4 4 4 4 4 4 4 5 5 4
1 1 1 2 2 2 2 2 2 2 2 2 2 2 4 3 2 3 3 3 3 3 3 3 3 3 3 3 4 4 4 4 4 4 4 4 4 4 4 4 5 5 5
2 2 1 2 2 2 2 2 2 2 2 2 3 3 3 3 3 3 3 3 3 3 3 3 4 3 3 3 4 4 5 5 5 5 4 4 4 4 5 5 6 6 6
2 2 2 2 2 2 2 2 2 2 3 3 3 3 3 3 3 4 4 4 4 4 4 3 3 4 5 4 4 4 4 5 5 5 6 6 5 5 5 5 6 6 6
2 2 2 2 2 2 2 3 3 3 3 3 3 3 3 4 4 4 4 4 4 4 4 4 3 4 5 6 5 5 6 8 8 5 5 5 6 6 6 6 6 6 6
2 2 2 2 2 2 3 3 3 3 3 3 3 4 4 4 4 4 4 3 4 4 4 4 4 5 5 5 6 7 9 10 10 10 7 5 6 6 6 6 7 6 6
Wind_Direction
233 235 235 235 237 238 234 235 243 219 206 208 209 212 211 215 213 213 215 210 213 215 215 216 217 213 212 211 211 220 229 229 236 236 232 219 221 230 221 225 230 230 228
236 238 241 242 239 238 238 243 248 234 214 212 212 215 217 217 219 217 218 215 215 216 215 215 217 214 216 213 214 218 222 222 227 230 228 222 226 231 228 227 231 236 235
232 237 241 240 243 247 245 245 248 243 227 218 215 215 217 219 224 221 219 218 218 218 216 215 216 214 216 214 215 218 218 216 220 220 224 225 227 223 230 229 230 233 237
229 232 238 241 245 248 245 240 243 243 236 225 228 225 224 222 225 225 222 219 220 221 221 219 218 217 216 214 213 213 211 209 211 212 214 215 218 214 222 224 227 228 231
230 234 241 246 246 242 241 239 241 241 240 230 232 234 229 225 222 223 226 220 220 222 224 224 223 222 220 215 211 206 204 209 211 213 215 214 213 206 219 219 231 236 234
232 240 245 243 237 236 236 236 240 242 242 229 227 231 230 231 235 232 229 222 222 222 224 227 227 222 220 221 219 216 212 210 210 215 221 218 220 222 223 220 223 228 237
232 241 238 229 231 236 236 231 237 242 246 240 232 231 233 241 240 236 237 228 225 224 223 222 221 221 223 221 217 217 218 220 221 224 226 226 224 220 221 224 222 228 240
229 235 233 229 234 233 232 235 244 249 246 245 237 236 241 248 247 241 240 235 232 227 224 222 220 219 219 218 215 215 218 219 222 225 231 234 234 227 225 230 232 237 258
229 235 240 235 234 232 233 237 247 254 255 254 246 239 243 250 245 245 237 234 233 233 229 225 222 221 216 215 215 216 222 227 225 227 235 237 234 231 226 222 221 222 240
234 241 242 238 232 232 235 241 244 246 253 257 254 246 247 251 242 246 244 236 234 233 230 227 223 224 219 215 214 213 220 222 217 219 225 226 225 221 221 223 223 223 235
240 240 235 233 232 232 236 239 235 239 246 251 256 251 251 249 241 243 250 242 238 235 229 228 223 220 223 222 222 220 223 223 219 221 222 220 220 219 218 223 227 228 229
227 229 233 233 232 225 226 230 227 228 234 242 251 255 251 244 244 246 250 250 248 239 235 235 230 221 226 224 223 219 218 218 215 217 221 220 217 218 222 225 229 239 247
221 224 230 233 230 222 219 219 222 223 230 239 247 252 256 251 247 251 249 250 254 253 244 237 234 226 224 222 220 217 216 214 213 217 219 222 223 219 217 227 223 223 243
222 225 220 222 225 222 226 224 224 224 230 236 242 248 257 256 254 247 245 246 252 253 248 231 228 222 222 223 220 215 213 209 210 217 221 217 207 205 212 222 223 214 228
239 236 220 221 225 228 237 241 239 240 241 244 241 240 243 251 254 266 267 255 250 249 248 233 217 208 211 213 212 210 206 203 213 213 211 209 206 211 218 218 217 216 229
248 249 233 217 210 217 230 264 264 260 266 268 266 259 260 262 266 266 267 269 266 245 235 221 217 218 215 213 212 211 210 211 214 214 213 214 212 211 215 218 218 220 227
260 268 257 234 221 225 237 247 259 268 262 264 264 261 262 263 264 267 269 271 261 240 230 225 223 224 223 218 217 216 215 214 212 213 214 216 216 215 215 218 219 222 227
273 272 272 253 246 244 247 254 252 251 257 265 264 258 258 263 268 267 266 270 250 239 233 228 227 226 225 222 219 219 215 209 211 212 215 216 215 216 218 222 220 221 225
274 270 266 266 263 258 257 261 258 254 255 263 272 268 261 262 265 265 267 254 254 255 248 239 231 227 226 224 221 220 219 218 219 218 217 219 219 219 221 224 222 219 226
284 281 285 274 267 263 257 254 258 261 268 265 265 271 278 271 258 259 257 252 252 257 258 251 241 232 225 222 218 217 219 221 221 224 224 222 224 225 224 223 220 219 224
287 279 287 290 280 272 269 265 266 268 273 281 285 285 278 273 268 270 270 264 259 257 259 258 249 234 226 221 218 219 222 224 225 225 225 225 225 226 227 225 220 221 223
284 282 285 287 285 279 276 271 266 265 267 274 288 298 297 283 273 271 269 269 270 267 264 257 249 242 233 224 219 219 221 224 222 221 224 224 225 226 227 224 220 219 218
276 279 284 284 279 278 284 281 273 270 274 280 287 293 288 275 270 269 269 268 268 266 264 257 249 243 240 235 230 225 223 225 224 219 219 224 226 225 226 223 218 219 218
270 269 272 277 278 274 275 279 277 276 278 280 283 285 283 275 269 269 271 272 270 268 265 261 253 244 242 242 237 231 228 227 224 221 221 222 225 228 230 226 222 219 220
266 267 270 274 276 277 277 279 280 280 279 278 279 283 285 282 276 273 272 272 274 271 271 269 259 248 241 243 244 240 231 232 233 227 221 222 224 227 228 228 224 222 222
275 274 277 280 279 278 276 277 279 279 279 281 282 282 283 283 280 278 277 275 276 277 276 270 259 255 253 249 245 245 241 235 233 235 230 219 223 227 224 225 224 224 223